SCP
0 0 0 0 0 0 0 0 0 0 0 0 0 0 0 0 0 0 0 0 0 0
0 0 0 0 0 0 0 0 0 0 0 0 0 0 0 0 0 0 0 0 0 0
0 0 0 0 0 0 0 0 0 0 0 0 0 0 0 0 0 0 0 0 0 0
0 0 0 0 0 0 0 0 0 0 0 0 0 0 0 0 0 0 0 0 0 0
0 0 0 0 0 0 0 0 0 0 0 0 0 0 0 0 0 0 0 0 0 0
0 0 0 0 0 0 0 0 0 0 0 0 0 0 0 0 0 0 0 0 0 0
0 0 0 0 0 0 0 0 0 0 0 0 0 0 0 0 0 0 0 0 0 0
0 0 0 0 0 0 0 0 0 0 0 0 0 0 0 0 0 0 0 0 0 0
0 0 0 0 0 0 0 0 0 0 0 0 0 0 0 0 0 0 0 0 0 0
0 0 0 0 0 0 0 0 0 0 0 0 0 0 0 0 0 0 0 0 0 0
0 0 0 0 0 0 0 0 0 0 0 0 0 0 0 0 0 0 0 0 0 0
0 0 0 0 0 0 0 0 0 0 0 0 0 0 0 0 0 0 0 0 0 0
0 0 0 0 0 0 0 0 0 0 0 0 0 0 0 0 0 0 0 0 0 0
0 0 0 0 0 0 0 0 0 0 0 -0 -0 -0 -0 -0 -0 -0 -0 -0 0 0
Wind_Speed_500mb
28 29 28 29 28 29 29 31 33 37 37 36 34 41 44 46 48 47 49 53 51 48
22 26 26 25 29 32 31 32 33 36 39 42 40 42 44 50 52 51 55 61 61 66
19 17 17 15 17 18 17 18 20 21 22 25 28 34 37 44 50 54 58 60 62 68
19 16 13 10 7 5 6 10 14 17 21 26 29 32 36 40 45 49 55 57 63 68
11 8 5 4 7 9 13 17 22 26 28 31 35 38 42 46 49 53 56 57 57 64
10 12 14 19 25 27 29 32 37 40 43 44 46 48 48 52 55 57 62 64 63 66
19 28 32 31 31 40 44 42 44 48 50 51 52 52 53 56 60 64 68 70 72 74
28 32 40 37 42 41 41 45 46 47 47 48 48 46 49 54 58 63 69 72 75 77
25 29 32 35 37 39 40 39 40 41 44 44 43 42 43 48 55 57 61 66 69 72
19 20 22 26 29 34 36 39 42 44 46 48 46 47 50 51 56 58 59 63 66 67
20 24 28 33 37 42 42 46 49 50 51 55 52 51 54 57 60 62 62 63 65 68
24 30 35 40 45 50 56 57 59 61 61 62 62 60 63 63 65 67 68 68 69 70
32 38 42 46 52 56 61 64 67 71 71 73 75 71 68 68 72 78 80 79 78 74
38 44 51 55 60 64 69 73 76 80 81 80 79 81 80 76 75 78 86 89 92 90
Wind_Direction_500mb
220 226 230 235 241 243 245 245 248 252 255 258 259 257 257 257 258 261 258 261 259 265
203 217 226 231 241 244 247 249 253 260 263 266 263 265 263 263 262 266 262 262 266 266
162 173 194 196 219 229 236 246 255 263 273 278 277 270 264 266 268 269 267 266 266 267
123 127 133 149 164 199 248 273 284 288 290 292 289 285 279 275 272 265 272 276 277 273
143 152 175 246 266 281 290 297 302 301 299 296 294 291 288 285 282 279 276 272 269 274
284 276 280 291 294 290 290 296 299 300 300 298 293 289 283 280 277 275 274 272 270 271
288 295 296 292 296 300 299 299 300 302 300 297 295 293 285 277 273 271 269 269 269 268
298 288 298 305 303 298 301 303 307 308 307 304 300 298 295 291 284 278 275 273 272 272
289 293 295 301 303 306 314 318 318 318 318 318 318 316 310 304 297 293 291 288 283 280
298 309 314 320 320 320 325 325 324 326 325 323 325 324 318 312 306 305 304 302 301 299
331 332 333 332 331 329 329 330 329 328 327 325 328 326 321 317 313 310 308 306 304 303
337 336 336 334 333 331 329 330 328 326 324 323 324 323 320 318 313 310 307 306 304 304
339 336 334 332 329 327 325 323 322 320 321 320 319 319 317 317 315 310 308 305 301 300
333 331 328 327 325 323 321 319 318 317 317 316 316 315 316 318 316 312 309 306 304 303
Wind_Speed_850mb
28 29 28 29 28 29 29 31 33 37 37 36 34 41 44 46 48 47 49 53 51 48
22 26 26 25 29 32 31 32 33 36 39 42 40 42 44 50 52 51 55 61 61 66
19 17 17 15 17 18 17 18 20 21 22 25 28 34 37 44 50 54 58 60 62 68
19 16 13 10 7 5 6 10 14 17 21 26 29 32 36 40 45 49 55 57 63 68
11 8 5 4 7 9 13 17 22 26 28 31 35 38 42 46 49 53 56 57 57 64
10 12 14 19 25 27 29 32 37 40 43 44 46 48 48 52 55 57 62 64 63 66
19 28 32 31 31 40 44 42 44 48 50 51 52 52 53 56 60 64 68 70 72 74
28 32 40 37 42 41 41 45 46 47 47 48 48 46 49 54 58 63 69 72 75 77
25 29 32 35 37 39 40 39 40 41 44 44 43 42 43 48 55 57 61 66 69 72
19 20 22 26 29 34 36 39 42 44 46 48 46 47 50 51 56 58 59 63 66 67
20 24 28 33 37 42 42 46 49 50 51 55 52 51 54 57 60 62 62 63 65 68
24 30 35 40 45 50 56 57 59 61 61 62 62 60 63 63 65 67 68 68 69 70
32 38 42 46 52 56 61 64 67 71 71 73 75 71 68 68 72 78 80 79 78 74
38 44 51 55 60 64 69 73 76 80 81 80 79 81 80 76 75 78 86 89 92 90
Wind_Direction_850mb
220 226 230 235 241 243 245 245 248 252 255 258 259 257 257 257 258 261 258 261 259 265
203 217 226 231 241 244 247 249 253 260 263 266 263 265 263 263 262 266 262 262 266 266
162 173 194 196 219 229 236 246 255 263 273 278 277 270 264 266 268 269 267 266 266 267
123 127 133 149 164 199 248 273 284 288 290 292 289 285 279 275 272 265 272 276 277 273
143 152 175 246 266 281 290 297 302 301 299 296 294 291 288 285 282 279 276 272 269 274
284 276 280 291 294 290 290 296 299 300 300 298 293 289 283 280 277 275 274 272 270 271
288 295 296 292 296 300 299 299 300 302 300 297 295 293 285 277 273 271 269 269 269 268
298 288 298 305 303 298 301 303 307 308 307 304 300 298 295 291 284 278 275 273 272 272
289 293 295 301 303 306 314 318 318 318 318 318 318 316 310 304 297 293 291 288 283 280
298 309 314 320 320 320 325 325 324 326 325 323 325 324 318 312 306 305 304 302 301 299
331 332 333 332 331 329 329 330 329 328 327 325 328 326 321 317 313 310 308 306 304 303
337 336 336 334 333 331 329 330 328 326 324 323 324 323 320 318 313 310 307 306 304 304
339 336 334 332 329 327 325 323 322 320 321 320 319 319 317 317 315 310 308 305 301 300
333 331 328 327 325 323 321 319 318 317 317 316 316 315 316 318 316 312 309 306 304 303